TimeCDT,TemperatureF,Dew PointF,Humidity,Sea Level PressureIn,VisibilityMPH,Wind Direction,Wind SpeedMPH,Gust SpeedMPH,PrecipitationIn,Events,Conditions,WindDirDegrees,DateUTC
12:15 AM,54.9,46.9,75,30.13,10.0,Calm,Calm,-,N/A,,Overcast,0,2013-06-06 05:15:00
12:35 AM,54.5,47.3,77,30.13,10.0,Calm,Calm,-,N/A,,Overcast,0,2013-06-06 05:35:00
12:55 AM,54.3,47.3,77,30.12,10.0,Calm,Calm,-,N/A,,Overcast,0,2013-06-06 05:55:00
1:15 AM,52.7,46.6,80,30.12,10.0,Calm,Calm,-,N/A,,Mostly Cloudy,0,2013-06-06 06:15:00
1:35 AM,51.1,46.0,83,30.12,10.0,Calm,Calm,-,N/A,,Scattered Clouds,0,2013-06-06 06:35:00
1:55 AM,50.0,45.5,85,30.12,10.0,Calm,Calm,-,N/A,,Clear,0,2013-06-06 06:55:00
2:15 AM,49.1,45.0,86,30.12,10.0,Calm,Calm,-,N/A,,Clear,0,2013-06-06 07:15:00
2:35 AM,48.6,44.8,87,30.11,10.0,Calm,Calm,-,N/A,,Clear,0,2013-06-06 07:35:00
2:55 AM,46.6,43.7,90,30.10,10.0,West,3.5,-,N/A,,Clear,280,2013-06-06 07:55:00
3:15 AM,46.8,43.7,89,30.10,10.0,West,5.8,-,N/A,,Clear,270,2013-06-06 08:15:00
3:35 AM,45.5,42.3,88,30.10,10.0,WNW,3.5,-,N/A,,Clear,300,2013-06-06 08:35:00
3:55 AM,45.5,42.6,90,30.09,10.0,WNW,5.8,-,N/A,,Clear,290,2013-06-06 08:55:00
4:15 AM,45.0,42.1,90,30.09,10.0,West,8.1,-,N/A,,Clear,280,2013-06-06 09:15:00
4:35 AM,45.0,41.9,89,30.09,10.0,WNW,3.5,-,N/A,,Clear,300,2013-06-06 09:35:00
4:55 AM,44.6,41.7,90,30.08,10.0,Calm,Calm,-,N/A,,Clear,0,2013-06-06 09:55:00
5:15 AM,43.7,41.0,90,30.09,10.0,WNW,4.6,-,N/A,,Clear,290,2013-06-06 10:15:00
5:35 AM,43.7,41.0,90,30.09,10.0,West,4.6,-,N/A,,Clear,270,2013-06-06 10:35:00
5:55 AM,44.1,41.2,90,30.09,10.0,WNW,3.5,-,N/A,,Clear,290,2013-06-06 10:55:00
6:15 AM,42.8,40.1,90,30.08,10.0,WNW,3.5,-,N/A,,Clear,290,2013-06-06 11:15:00
6:35 AM,43.0,40.5,91,30.09,10.0,Calm,Calm,-,N/A,,Clear,0,2013-06-06 11:35:00
6:55 AM,44.8,42.1,90,30.09,10.0,WSW,4.6,-,N/A,,Clear,250,2013-06-06 11:55:00
7:15 AM,46.6,43.5,89,30.10,10.0,WSW,4.6,-,N/A,,Clear,250,2013-06-06 12:15:00
7:35 AM,48.4,44.6,87,30.10,10.0,West,4.6,-,N/A,,Clear,280,2013-06-06 12:35:00
7:55 AM,49.5,45.0,84,30.10,10.0,WNW,4.6,-,N/A,,Clear,290,2013-06-06 12:55:00
8:15 AM,51.3,46.4,83,30.10,10.0,WNW,5.8,-,N/A,,Clear,290,2013-06-06 13:15:00
8:35 AM,53.6,46.9,78,30.10,10.0,NW,3.5,-,N/A,,Clear,310,2013-06-06 13:35:00
8:55 AM,56.3,48.0,74,30.11,10.0,North,3.5,-,N/A,,Clear,350,2013-06-06 13:55:00
9:15 AM,58.1,47.7,68,30.10,10.0,NNW,5.8,-,N/A,,Clear,330,2013-06-06 14:15:00
9:35 AM,59.2,47.3,65,30.11,10.0,North,5.8,-,N/A,,Clear,360,2013-06-06 14:35:00
9:55 AM,60.1,46.6,61,30.11,10.0,WNW,3.5,-,N/A,,Clear,300,2013-06-06 14:55:00
10:15 AM,61.0,45.9,58,30.10,10.0,North,3.5,-,N/A,,Clear,350,2013-06-06 15:15:00
10:35 AM,62.6,44.1,51,30.10,10.0,North,4.6,-,N/A,,Clear,10,2013-06-06 15:35:00
10:55 AM,63.0,43.5,49,30.10,10.0,North,5.8,-,N/A,,Clear,350,2013-06-06 15:55:00
11:15 AM,63.7,45.0,51,30.10,10.0,NNE,6.9,-,N/A,,Scattered Clouds,20,2013-06-06 16:15:00
11:35 AM,64.9,44.6,48,30.09,10.0,NNE,5.8,-,N/A,,Scattered Clouds,20,2013-06-06 16:35:00
11:55 AM,64.6,43.5,46,30.09,10.0,NW,5.8,-,N/A,,Scattered Clouds,320,2013-06-06 16:55:00
12:15 PM,65.5,44.1,46,30.09,10.0,North,5.8,-,N/A,,Scattered Clouds,10,2013-06-06 17:15:00
12:35 PM,66.0,44.2,45,30.09,10.0,NNE,5.8,-,N/A,,Scattered Clouds,20,2013-06-06 17:35:00
12:55 PM,66.2,44.8,46,30.09,10.0,Calm,Calm,-,N/A,,Mostly Cloudy,0,2013-06-06 17:55:00
1:15 PM,67.3,45.0,45,30.08,10.0,NNW,6.9,-,N/A,,Mostly Cloudy,330,2013-06-06 18:15:00
1:35 PM,67.8,44.4,43,30.08,10.0,North,9.2,-,N/A,,Mostly Cloudy,350,2013-06-06 18:35:00
1:55 PM,66.6,43.0,42,30.08,10.0,NW,8.1,-,N/A,,Mostly Cloudy,320,2013-06-06 18:55:00
2:15 PM,68.4,43.9,41,30.07,10.0,NNE,3.5,-,N/A,,Mostly Cloudy,20,2013-06-06 19:15:00
2:35 PM,68.9,43.3,40,30.07,10.0,NW,8.1,-,N/A,,Scattered Clouds,320,2013-06-06 19:35:00
2:55 PM,69.8,43.9,39,30.07,10.0,NNW,6.9,-,N/A,,Scattered Clouds,330,2013-06-06 19:55:00
3:15 PM,70.2,43.0,37,30.07,10.0,North,5.8,17.3,N/A,,Scattered Clouds,10,2013-06-06 20:15:00
3:35 PM,70.3,41.2,35,30.05,10.0,NNW,9.2,-,N/A,,Scattered Clouds,330,2013-06-06 20:35:00
3:55 PM,71.4,43.2,36,30.05,10.0,North,12.7,-,N/A,,Scattered Clouds,360,2013-06-06 20:55:00
4:15 PM,70.5,43.2,37,30.05,10.0,North,6.9,-,N/A,,Mostly Cloudy,10,2013-06-06 21:15:00
4:35 PM,70.9,42.6,36,30.05,10.0,NNW,8.1,-,N/A,,Mostly Cloudy,340,2013-06-06 21:35:00
4:55 PM,71.1,41.9,35,30.04,10.0,Calm,Calm,-,N/A,,Overcast,0,2013-06-06 21:55:00
5:15 PM,70.9,41.4,34,30.04,10.0,North,8.1,-,N/A,,Mostly Cloudy,360,2013-06-06 22:15:00
5:35 PM,69.8,42.4,37,30.04,10.0,NE,8.1,-,N/A,,Mostly Cloudy,40,2013-06-06 22:35:00
5:55 PM,71.1,43.5,37,30.03,10.0,NNE,10.4,-,N/A,,Mostly Cloudy,20,2013-06-06 22:55:00
6:15 PM,69.4,41.9,37,30.03,10.0,NNE,6.9,-,N/A,,Scattered Clouds,30,2013-06-06 23:15:00
6:35 PM,70.7,41.9,35,30.03,10.0,North,9.2,-,N/A,,Scattered Clouds,10,2013-06-06 23:35:00
6:55 PM,70.5,42.1,36,30.03,10.0,NNE,8.1,-,N/A,,Clear,20,2013-06-06 23:55:00
7:15 PM,70.2,41.7,36,30.03,10.0,NNE,9.2,-,N/A,,Clear,20,2013-06-07 00:15:00
7:35 PM,69.8,43.0,38,30.03,10.0,NNE,10.4,-,N/A,,Clear,20,2013-06-07 00:35:00
7:55 PM,69.1,43.2,39,30.04,10.0,NNE,8.1,-,N/A,,Clear,30,2013-06-07 00:55:00
8:15 PM,67.5,44.6,44,30.04,10.0,NE,6.9,-,N/A,,Clear,50,2013-06-07 01:15:00
8:35 PM,65.8,44.2,46,30.05,10.0,NE,6.9,-,N/A,,Clear,50,2013-06-07 01:35:00
8:55 PM,63.7,45.3,51,30.05,10.0,NE,4.6,-,N/A,,Clear,50,2013-06-07 01:55:00
9:15 PM,61.7,45.3,55,30.06,10.0,NE,5.8,-,N/A,,Clear,50,2013-06-07 02:15:00
9:35 PM,58.8,45.9,62,30.06,10.0,East,4.6,-,N/A,,Clear,80,2013-06-07 02:35:00
9:55 PM,57.9,46.4,65,30.07,10.0,East,4.6,-,N/A,,Clear,90,2013-06-07 02:55:00
10:15 PM,56.5,46.4,69,30.08,10.0,East,4.6,-,N/A,,Clear,100,2013-06-07 03:15:00
10:35 PM,56.1,46.6,70,30.09,10.0,ENE,5.8,-,N/A,,Clear,70,2013-06-07 03:35:00
10:55 PM,55.4,46.6,72,30.10,10.0,Calm,Calm,-,N/A,,Clear,0,2013-06-07 03:55:00
11:15 PM,55.4,46.6,72,30.10,10.0,Calm,Calm,-,N/A,,Clear,0,2013-06-07 04:15:00
11:35 PM,55.9,46.4,70,30.10,10.0,Calm,Calm,-,N/A,,Clear,0,2013-06-07 04:35:00
11:55 PM,54.3,46.4,75,30.10,10.0,Calm,Calm,-,N/A,,Clear,0,2013-06-07 04:55:00